Content
SEND FEEDBACK

Daily
Averages
Monthly
Summary
United States of America

AGAT, GUAM


Home > North America > United States > Guam
Elevation: 110 meters     Latitude: 13 33N     Longitude: 144 50E

WEATHER
 
SELECT A DAY
Number of Records: 214,928;   Date Range: 1/1/95 - 11/26/14
 
SHARE

PRINT THIS DATA

[ ← Previous Day ]
WEATHER ALMANAC - 7 AUGUST, 2014
[ Next Day → ]
[ °F ]   °C
Weather ElementAverageHighLow
Temperature28.1 °C30.6 °C (10:54 am)26.1 °C (7:54 pm)
Dewpoint24.7 °C26.1 °C (2:54 pm)23.9 °C (5:54 am)
Humidity82.4 %94 % (11:54 pm)67 % (10:54 am)
Barometer1008.5 hPa1010.2 hPa (2:54 am)1006.8 hPa (3:54 pm)
Wind Speed7.1 km/h16.7 km/h (12:49 am)
Wind Gust27.8 km/h (1:18 pm)
Weather ElementAverage
Visibility15.4 km
Wind DirectionENE (71.8 °)

Weather ElementTotal
Precipitation3.05 mm
Cooling Degree Days10.1 (Base 18.3)
Growing Degree Days18.4 (Base 10)
Averaged from 34 records on 7 August, 2014
WEATHER CONDITIONS BREAKOUT
WIND DIRECTION BREAKOUT
WEATHER BY HOUR - 7 AUGUST, 2014
[ °F ]   °C
Local TimeTemperatureDewpointHumidityBarometerVisibilityWind DirectionWind SpeedGust SpeedPrecipitationEventsConditions
12:54 AM26.7 °C25 °C90 %1008.8 hPa16.1 kmNE (40°)5.6 km/hClear
1:54 AM26.1 °C25 °C94 %1008.1 hPa16.1 kmCalmPartly Cloudy
2:54 AM26.1 °C25 °C94 %1007.8 hPa16.1 kmNNE (30°)7.4 km/hClear
3:54 AM26.1 °C24.4 °C90 %1007.5 hPa16.1 kmNE (40°)5.6 km/hClear
4:54 AM26.1 °C24.4 °C90 %1007.8 hPa16.1 kmENE (70°)7.4 km/hClear
5:54 AM26.1 °C23.9 °C88 %1008.1 hPa16.1 kmCalmMostly Cloudy
6:54 AM26.1 °C24.4 °C90 %1008.5 hPa16.1 kmCalmClear
7:54 AM27.8 °C25.6 °C88 %1009.1 hPa16.1 kmESE (110°)5.6 km/hPartly Cloudy
8:54 AM28.9 °C24.4 °C76 %1009.5 hPa16.1 kmESE (120°)13 km/hPartly Cloudy
9:54 AM29.4 °C23.9 °C72 %1009.5 hPa16.1 kmEast (80°)13 km/hPartly Cloudy
10:54 AM30.6 °C23.9 °C67 %1009.1 hPa16.1 kmEast (100°)13 km/hScattered Clouds
11:54 AM30.6 °C23.9 °C67 %1008.5 hPa16.1 kmESE (120°)14.8 km/hPartly Cloudy
12:50 PM30 °C24 °C70 %1008.5 hPa16.1 kmSE (130°)13 km/hMostly Cloudy
12:54 PM30.6 °C25 °C72 %1007.8 hPa16.1 kmESE (120°)13 km/hMostly Cloudy
1:18 PM29 °C24 °C74 %1008.1 hPa16.1 kmESE (110°)14.8 km/h27.8 km/hScattered Clouds
1:54 PM30 °C24.4 °C72 %1007.5 hPa16.1 kmESE (110°)16.7 km/hScattered Clouds
2:44 PM28 °C26 °C89 %1008.1 hPa4 kmEast (80°)9.3 km/h0.76 mmRainLight Rain
2:46 PM28 °C26 °C89 %1008.1 hPa8 kmESE (110°)7.4 km/h0.76 mmRainLight Rain
2:54 PM28.9 °C26.1 °C85 %1007.5 hPa16.1 kmESE (110°)9.3 km/h0.76 mmMostly Cloudy
3:54 PM30 °C24.4 °C72 %1006.8 hPa16.1 kmSSE (150°)13 km/hPartly Cloudy
4:54 PM29.4 °C24.4 °C74 %1006.8 hPa16.1 kmESE (110°)13 km/hClear
5:54 PM29.4 °C25 °C77 %1007.1 hPa16.1 kmSE (140°)13 km/hScattered Clouds
6:54 PM28.3 °C24.4 °C79 %1007.5 hPa16.1 kmSE (140°)7.4 km/hScattered Clouds
7:07 PM28 °C24 °C79 %1008.5 hPa16.1 kmSE (140°)7.4 km/hMostly Cloudy
7:26 PM28 °C24 °C79 %1008.8 hPa16.1 kmSE (140°)9.3 km/hScattered Clouds
7:54 PM27.8 °C24.4 °C82 %1008.1 hPa16.1 kmSE (140°)7.4 km/hPartly Cloudy
8:54 PM27.8 °C24.4 °C82 %1008.5 hPa16.1 kmCalmClear
9:42 PM28 °C24 °C79 %1009.8 hPa16.1 kmCalmMostly Cloudy
9:54 PM27.2 °C25 °C88 %1009.1 hPa16.1 kmCalmOvercast
10:18 PM27 °C25 °C89 %1009.8 hPa16.1 kmCalm0.25 mmMostly Cloudy
10:39 PM27 °C26 °C94 %1010.2 hPa16.1 kmCalm0.25 mmMostly Cloudy
10:54 PM27.2 °C25 °C88 %1009.5 hPa16.1 kmCalm0.25 mmMostly Cloudy
11:01 PM27 °C25 °C89 %1009.8 hPa16.1 kmCalmScattered Clouds
11:54 PM26.1 °C25 °C94 %1009.1 hPa16.1 kmCalm0 mmMostly Cloudy
Hourly data recorded from PGUM, located 0 kilometers away from Agat, Guam







STORIES FROM OUR PARTNERS